Location: Mount Wilson Observatory
(34.2257°N, 118.0571°W)
Time: 02:23:32
(UTC-07:00)

ATLAS 3B CENTAUR R/B - Visible Passes

Search period start: 28 March 2015 00:00
Search period end: 07 April 2015 00:00
Orbit: 223 x 7900 km, 28.2° (Epoch: 27 March)

Date Brightness Start Highest point End Pass type
(mag) Time Alt. Az. Time Alt. Az. Time Alt. Az.
28 Mar 7.0 18:48:20 10° W 19:33:40 27° SW 19:59:36 10° S visible
02 Apr 7.3 20:02:22 10° WSW 20:22:41 10° SW 20:25:26 10° SW visible
03 Apr 7.3 19:17:17 10° WSW 19:49:37 14° SW 20:03:57 10° SSW visible
04 Apr 7.3 18:38:13 10° W 19:15:44 18° SW 19:37:16 10° SSW visible
